Weather reports worldwide

Advertisment
Marham, United Kingdom (3482): temperature & dewpoint: 19.09.2018 11:00:00 - 25.09.2018 11:00:00 (BST)Marham, United Kingdom (3482): temperature -20cm & temperature -100cm: 19.09.2018 11:00:00 - 25.09.2018 11:00:00 (BST)Marham, United Kingdom (3482): wind speed & gusts: 19.09.2018 11:00:00 - 25.09.2018 11:00:00 (BST)Marham, United Kingdom (3482): wind direction: 19.09.2018 11:00:00 - 25.09.2018 11:00:00 (BST)Marham, United Kingdom (3482): reduced air pressure: 19.09.2018 11:00:00 - 25.09.2018 11:00:00 (BST)Marham, United Kingdom (3482): visibility: 19.09.2018 11:00:00 - 25.09.2018 11:00:00 (BST)Marham, United Kingdom (3482): precipitation: 19.09.2018 11:00:00 - 25.09.2018 11:00:00 (BST)
Date & Time tt [°C] td [°C] tt -20cm [°C] tt -100cm [°C] ff [km/h] ff [kn] fx [km/h] fx [kn] dd ppp [hPa] vv [km] rr [mm]
25.09.2018 11:00:00 - - - - - - - - - - - -
25.09.2018 10:00:00 8,9 6,7 13,5 15,0 8 4 - - S 1039,3 10 0,0
25.09.2018 09:00:00 6,3 5,7 - - 2 1 - - S 1039,2 10 0,0
25.09.2018 08:00:00 3,3 3,1 - - 4 2 - - SSE 1038,7 10 0,0
25.09.2018 07:00:00 2,1 1,7 - - 4 2 - - SSW 1038,2 10 0,0
25.09.2018 06:00:00 2,5 2,2 - - 8 4 - - SE 1038,3 10 0,0
25.09.2018 05:00:00 3,0 2,7 - - 5 3 - - S 1038,5 10 0,0
25.09.2018 04:00:00 2,6 2,1 - - 2 1 - - SE 1038,7 10 0,0
25.09.2018 03:00:00 2,9 2,2 - - 4 2 - - ESE 1038,8 15 0,0
25.09.2018 02:00:00 3,4 2,7 - - 4 2 - - ESE 1038,9 10 0,0
25.09.2018 01:00:00 4,0 2,7 - - 4 2 - - SSE 1038,8 10 0,0
25.09.2018 00:00:00 4,9 3,9 - - 5 3 - - S 1038,8 10 0,0
24.09.2018 23:00:00 6,0 4,1 - - 2 1 - - ESE 1038,8 10 0,0
24.09.2018 22:00:00 6,1 3,6 - - 4 2 - - SSE 1038,5 10 0,0
24.09.2018 21:00:00 7,5 4,4 - - 2 1 - - W 1038,1 10 0,0
24.09.2018 20:00:00 10,0 4,3 - - 4 2 - - SSW 1037,6 10 0,0
24.09.2018 19:00:00 11,5 4,0 - - 4 2 - - W 1037,1 10 0,0
24.09.2018 18:00:00 13,3 3,7 - - 8 4 - - NW 1036,9 10 0,0
24.09.2018 17:00:00 14,5 3,0 - - 16 9 - - NW 1037,2 10 0,0
24.09.2018 16:00:00 14,7 3,2 - - 21 11 - - NNW 1037,5 10 0,0
24.09.2018 15:00:00 14,6 1,4 - - 13 7 - - NW 1037,3 10 0,0
24.09.2018 14:00:00 14,1 3,2 - - 15 8 - - NW 1037,6 10 0,0
24.09.2018 13:00:00 13,4 4,7 - - 15 8 - - NW 1037,8 10 0,0
24.09.2018 12:00:00 12,5 4,9 - - 15 8 - - NW 1037,6 10 0,0
24.09.2018 11:00:00 11,8 7,3 - - 13 7 - - NW 1037,4 10 0,0
24.09.2018 10:00:00 10,3 7,4 13,9 15,2 13 7 - - NW 1036,9 10 0,0
24.09.2018 09:00:00 7,6 6,1 - - 9 5 - - WNW 1036,1 10 0,0
24.09.2018 08:00:00 5,7 4,4 - - 15 8 - - NW 1035,3 10 0,0
24.09.2018 07:00:00 4,8 3,6 - - 11 6 - - NW 1034,8 25 0,0
24.09.2018 06:00:00 3,9 3,2 - - 5 3 - - SW 1034,2 10 0,0
24.09.2018 05:00:00 4,0 3,0 - - 5 3 - - W 1033,7 10 0,0
24.09.2018 04:00:00 4,7 3,3 - - 11 6 - - NW 1033,3 10 0,0
24.09.2018 03:00:00 4,8 4,0 - - 8 4 - - WNW 1032,7 10 0,0
24.09.2018 02:00:00 4,9 4,0 - - 2 1 - - S 1031,8 10 0,0
24.09.2018 01:00:00 4,6 3,8 - - 4 2 - - W 1031,2 10 0,0
24.09.2018 00:00:00 5,1 3,8 - - 11 6 - - WNW 1030,3 10 0,0
23.09.2018 23:00:00 6,6 5,0 - - 16 9 - - W 1029,8 10 0,0
23.09.2018 22:00:00 6,7 4,8 - - 11 6 - - WNW 1028,6 10 0,0
23.09.2018 21:00:00 8,0 5,4 - - 11 6 - - NW 1027,4 10 0,0
23.09.2018 20:00:00 8,7 6,2 - - 15 8 - - NW 1025,9 10 0,0
23.09.2018 19:00:00 9,1 6,9 - - 11 6 - - WNW 1024,3 10 0,0
23.09.2018 18:00:00 9,5 6,6 - - 26 14 46 25 N 1023,0 35 0,0
23.09.2018 17:00:00 9,9 8,0 - - 18 10 - - NNW 1021,7 30 1,0
23.09.2018 16:00:00 11,4 6,8 - - 34 18 48 26 N 1020,3 30 0,0
23.09.2018 15:00:00 13,7 6,6 - - 28 15 - - NW 1018,7 10 0,0
23.09.2018 14:00:00 11,8 7,4 - - 28 15 - - NNW 1017,9 10 0,0
23.09.2018 13:00:00 9,7 7,8 - - 18 10 - - NW 1017,3 10 0,0
23.09.2018 12:00:00 9,6 8,6 - - 13 7 - - WNW 1016,5 8 0,6
23.09.2018 11:00:00 9,8 9,1 - - 16 9 - - NW 1016,3 7 0,8
23.09.2018 10:00:00 10,3 9,8 14,5 15,4 9 5 - - NW 1015,5 7 2,2
23.09.2018 09:00:00 9,9 9,3 - - 9 5 - - NW 1014,9 6 1,4
23.09.2018 08:00:00 9,8 9,1 - - 9 5 - - NNW 1014,0 6 0,4
23.09.2018 07:00:00 10,0 9,2 - - 15 8 - - NE 1014,2 7 0,0
23.09.2018 06:00:00 9,6 8,7 - - 8 4 - - NNW 1014,5 24 0,0
23.09.2018 05:00:00 9,3 8,7 - - 8 4 - - NNW 1013,9 19 0,0
23.09.2018 04:00:00 9,1 8,4 - - 8 4 - - NNW 1014,3 14 0,0
23.09.2018 03:00:00 9,4 8,7 - - 5 3 - - N 1014,5 20 0,0
23.09.2018 02:00:00 9,4 8,7 - - 4 2 - - N 1015,2 24 0,0
23.09.2018 01:00:00 9,6 8,5 - - 4 2 - - NNE 1015,6 29 0,0
23.09.2018 00:00:00 9,4 8,3 - - 4 2 - - NE 1015,6 29 0,0
22.09.2018 23:00:00 9,3 8,2 - - 5 3 - - ENE 1015,6 30 0,0
22.09.2018 22:00:00 9,3 8,1 - - 4 2 - - E 1016,1 10 0,0
22.09.2018 21:00:00 9,6 7,8 - - 2 1 - - E 1016,0 30 0,0
22.09.2018 20:00:00 10,3 8,3 - - 8 4 - - SSW 1016,2 10 0,0
22.09.2018 19:00:00 11,0 9,0 - - 8 4 - - SSW 1016,2 10 0,0
22.09.2018 18:00:00 11,5 8,6 - - 16 9 - - SSW 1016,4 10 0,0
22.09.2018 17:00:00 12,1 9,0 - - 16 9 - - SW 1016,5 30 0,0
22.09.2018 16:00:00 12,4 9,7 - - 18 10 - - SW 1016,9 28 0,6
22.09.2018 15:00:00 13,7 8,9 - - 18 10 - - WSW 1017,5 10 0,0
22.09.2018 14:00:00 13,9 8,6 - - 21 11 - - WSW 1017,9 10 0,0
22.09.2018 13:00:00 13,4 8,5 - - 21 11 - - WSW 1017,8 10 0,0
22.09.2018 12:00:00 12,6 8,6 - - 21 11 - - W 1018,6 10 0,0
22.09.2018 11:00:00 12,2 9,5 - - 16 9 - - W 1018,3 10 0,0
22.09.2018 10:00:00 11,4 9,1 14,9 15,5 15 8 - - WSW 1018,3 26 0,0
22.09.2018 09:00:00 10,6 8,9 - - 15 8 - - WSW 1018,1 25 0,0
22.09.2018 08:00:00 9,4 8,3 - - 11 6 - - WSW 1017,8 24 0,0
22.09.2018 07:00:00 7,9 7,0 - - 9 5 - - SSW 1017,9 10 0,0
22.09.2018 06:00:00 8,4 7,1 - - 5 3 - - S 1017,5 25 0,0
22.09.2018 05:00:00 8,8 7,1 - - 13 7 - - SW 1017,5 29 0,0
22.09.2018 04:00:00 9,1 7,2 - - 13 7 - - SW 1017,5 29 0,0
22.09.2018 03:00:00 9,1 7,0 - - 16 9 - - SW 1017,1 30 0,0
22.09.2018 02:00:00 9,8 7,4 - - 21 11 - - SW 1016,7 30 0,0
22.09.2018 01:00:00 9,7 7,2 - - 16 9 - - WSW 1016,3 30 0,0
22.09.2018 00:00:00 9,2 6,5 - - 18 10 - - WSW 1016,0 30 0,0
21.09.2018 23:00:00 9,1 6,8 - - 18 10 - - WSW 1015,4 30 0,0
21.09.2018 22:00:00 9,6 7,2 - - 18 10 - - WSW 1014,5 35 0,0
21.09.2018 21:00:00 10,2 7,2 - - 22 12 46 25 W 1013,7 35 0,0
21.09.2018 20:00:00 11,0 7,3 - - 34 18 52 28 W 1012,4 40 0,0
21.09.2018 19:00:00 10,4 8,3 - - 28 15 55 30 W 1010,8 10 1,0
21.09.2018 18:00:00 14,5 6,7 - - 37 20 68 37 W 1008,9 35 0,0
21.09.2018 17:00:00 14,1 7,7 - - 34 18 57 31 WSW 1007,9 35 0,0
21.09.2018 16:00:00 13,3 8,7 - - 35 19 68 37 WSW 1007,3 29 0,2
21.09.2018 15:00:00 13,3 6,4 - - 42 23 63 34 WSW 1006,6 18 0,0
21.09.2018 14:00:00 13,7 6,4 - - 42 23 68 37 WSW 1006,6 10 0,0
21.09.2018 13:00:00 11,6 6,4 - - 41 22 59 32 WSW 1006,0 8 0,2
21.09.2018 12:00:00 13,4 5,6 - - 42 23 59 32 WSW 1005,4 10 0,0
21.09.2018 11:00:00 13,1 5,9 - - 35 19 55 30 WSW 1004,8 10 0,0
21.09.2018 10:00:00 12,3 6,1 15,9 15,5 37 20 54 29 WSW 1004,2 10 0,0
21.09.2018 09:00:00 11,0 6,2 - - 31 17 48 26 WSW 1003,0 10 0,0
21.09.2018 08:00:00 10,5 6,0 - - 31 17 52 28 W 1001,9 10 0,0
21.09.2018 07:00:00 10,4 6,7 - - 26 14 59 32 W 1000,4 10 0,0
21.09.2018 06:00:00 10,3 6,2 - - 41 22 - - W 998,6 10 0,0
21.09.2018 05:00:00 12,1 7,5 - - 46 25 - - W 996,6 10 0,0
21.09.2018 04:00:00 13,9 10,1 - - 44 24 81 44 SW 994,7 10 0,0
21.09.2018 03:00:00 16,3 13,6 - - 42 23 67 36 SW 993,4 20 7,0
21.09.2018 02:00:00 17,7 15,3 - - 61 33 83 45 SSW 993,3 5 0,2
21.09.2018 01:00:00 18,4 14,6 - - 44 24 76 41 S 994,7 10 0,0
21.09.2018 00:00:00 17,6 15,3 - - 44 24 65 35 S 996,0 10 0,4
20.09.2018 23:00:00 18,9 14,7 - - 44 24 67 36 S 998,6 10 0,0
20.09.2018 22:00:00 19,0 13,8 - - 41 22 57 31 S 1000,1 10 0,0
20.09.2018 21:00:00 19,2 13,3 - - 42 23 63 34 SSW 1001,6 10 0,0
20.09.2018 20:00:00 19,1 13,5 - - 42 23 61 33 S 1002,2 10 0,0
20.09.2018 19:00:00 19,2 13,3 - - 42 23 67 36 SSW 1003,5 10 0,0
20.09.2018 18:00:00 19,4 13,7 - - 39 21 68 37 SSW 1004,2 20 0,0
20.09.2018 17:00:00 19,5 13,6 - - 42 23 59 32 S 1004,7 10 0,0
20.09.2018 16:00:00 19,1 14,6 - - 37 20 57 31 SSW 1006,4 10 0,0
20.09.2018 15:00:00 19,7 15,7 - - 41 22 55 30 SSW 1007,5 10 0,0
20.09.2018 14:00:00 18,3 16,8 - - 22 12 - - S 1008,2 10 0,0
20.09.2018 13:00:00 16,3 15,8 - - 13 7 - - S 1009,2 10 0,4
20.09.2018 12:00:00 14,5 14,0 - - 9 5 - - S 1010,6 3,0 0,4
20.09.2018 11:00:00 14,3 14,1 - - 8 4 - - SSE 1011,1 2,7 0,6
20.09.2018 10:00:00 12,8 12,6 16,0 15,5 5 3 - - E 1011,4 2,7 1,4
20.09.2018 09:00:00 12,1 11,8 - - 5 3 - - E 1011,4 4,0 1,6
20.09.2018 08:00:00 11,9 11,5 - - 8 4 - - ENE 1011,5 2,0 0,4
20.09.2018 07:00:00 11,8 11,5 - - 2 1 - - NE 1011,9 3,0 0,8
20.09.2018 06:00:00 11,8 11,4 - - 4 2 - - NNW 1011,9 2,4 2,2
20.09.2018 05:00:00 12,2 11,7 - - 5 3 - - WSW 1012,0 2,4 1,0
20.09.2018 04:00:00 12,8 12,2 - - 9 5 - - W 1012,7 3,0 0,2
20.09.2018 03:00:00 12,9 12,3 - - 9 5 - - WSW 1012,9 3,7 0,4
20.09.2018 02:00:00 13,1 11,8 - - 5 3 - - SW 1013,0 5 0,0
20.09.2018 01:00:00 13,3 11,1 - - 11 6 - - WSW 1013,2 10 0,2
20.09.2018 00:00:00 15,8 9,2 - - 24 13 - - WSW 1013,2 10 0,0
19.09.2018 23:00:00 16,1 9,4 - - 28 15 - - WSW 1013,0 10 0,0
19.09.2018 22:00:00 17,4 10,1 - - 29 16 50 27 WSW 1012,6 10 0,0
19.09.2018 21:00:00 17,9 13,0 - - 28 15 50 27 WSW 1011,8 10 0,0
19.09.2018 20:00:00 18,3 14,5 - - 37 20 52 28 WSW 1011,2 10 0,0
19.09.2018 19:00:00 19,4 14,7 - - 37 20 65 35 SW 1010,3 10 0,0
19.09.2018 18:00:00 21,9 12,6 - - 39 21 63 34 SW 1008,9 10 0,0
19.09.2018 17:00:00 22,5 12,3 - - 42 23 68 37 SW 1008,2 10 0,0
19.09.2018 16:00:00 23,6 12,3 - - 44 24 70 38 SW 1007,9 10 0,0
19.09.2018 15:00:00 23,8 11,2 - - 55 30 80 43 SW 1007,5 10 0,0
19.09.2018 14:00:00 22,9 11,3 - - 57 31 78 42 SSW 1007,1 10 0,0
19.09.2018 13:00:00 22,4 12,0 - - 52 28 80 43 SSW 1007,5 10 0,0
19.09.2018 12:00:00 22,4 13,6 - - 50 27 70 38 SSW 1008,2 10 0,0
19.09.2018 11:00:00 21,1 14,6 - - 44 24 68 37 SSW 1009,2 10 0,0

tt = temperature
td = dewpoint
tt -20cm = temperature -20cm
tt -100cm = temperature -100cm
ff = wind speed
fx = gusts
dd = wind direction
ppp = reduced air pressure
vv = visibility
rr = precipitation

Next stations